User: anonymous   Login
Location: Peebles
(55.6412°N, 3.1714°W)
Time: 07:52:29
(UTC+00:00)
Language:

Cosmos 1892 Rocket - Orbit

View from above orbital plane
View from above orbital plane
View from above satellite
View from above satellite

Ground track
Ground track

The orbit data is extracted from the following two-line orbital elements,

1 18422U 87088B   21336.81242998  .00000146  00000-0  14898-4 0  9991
2 18422  82.5119  89.6528 0020995 109.6399   5.0663 14.83106639822255
Epoch (UTC): 02 December 2021 19:29:53
Eccentricity: 0.0020995
inclination: 82.5119°
perigee height: 605 km
apogee height: 634 km
right ascension of ascending node: 89.6528°
argument of perigee: 109.6399°
revolutions per day: 14.83106639
mean anomaly at epoch: 5.0663°
orbit number at epoch: 82225

The dashed part of the orbit path shows where the satellite is in the earth's shadow,  

DLR